• In Hungary
  • List of Countries
  • For 7 days
  • Water Temperature
  • Satellite Maps
  • Weather Map
  • News
  • Weather Widgets
  • user-avatar
    Login

    Hourly Weather Lankaran

    Today, 25 June, Monday

    Time Temperature Precipitation Wind Pressure Humidity
    00:00 +16°C° 0 mm 1 mps 633 mmHg 71%
    01:00 +16°C° 0 mm 1 mps 633 mmHg 69%
    02:00 +15°C° 0 mm 1 mps 633 mmHg 68%
    03:00 +15°C° 0 mm 1 mps 633 mmHg 64%
    04:00 +16°C° 0 mm 1 mps 634 mmHg 60%
    05:00 +18°C° 0 mm 1 mps 634 mmHg 55%
    06:00 +19°C° 0 mm 1 mps 635 mmHg 51%
    07:00 +20°C° 0 mm 2 mps 635 mmHg 46%
    08:00 +22°C° 0 mm 3 mps 636 mmHg 41%
    09:00 +24°C° 0 mm 3 mps 636 mmHg 38%
    10:00 +25°C° 0 mm 3 mps 637 mmHg 36%
    11:00 +26°C° 0 mm 4 mps 637 mmHg 34%
    12:00 +27°C° 0 mm 4 mps 637 mmHg 32%
    13:00 +27°C° 0 mm 4 mps 636 mmHg 31%
    14:00 +27°C° 0 mm 4 mps 636 mmHg 31%
    15:00 +27°C° 0 mm 4 mps 636 mmHg 31%
    16:00 +26°C° 0 mm 4 mps 636 mmHg 34%
    17:00 +25°C° 0 mm 3 mps 635 mmHg 37%
    18:00 +24°C° 0 mm 3 mps 635 mmHg 40%
    19:00 +21°C° 0 mm 2 mps 635 mmHg 45%
    20:00 +19°C° 0 mm 2 mps 634 mmHg 49%
    21:00 +18°C° 0 mm 1 mps 634 mmHg 53%
    22:00 +18°C° 0 mm 1 mps 634 mmHg 51%
    23:00 +18°C° 0 mm 1 mps 634 mmHg 49%

    Tomorrow, 26 June, Tuesday

    Time Temperature Precipitation Wind Pressure Humidity
    00:00 +18°C° 0 mm 1 mps 634 mmHg 47%
    01:00 +16°C° 0 mm 1 mps 633 mmHg 46%
    02:00 +16°C° 0 mm 1 mps 633 mmHg 46%
    03:00 +16°C° 0 mm 1 mps 633 mmHg 45%
    04:00 +18°C° 0 mm 1 mps 633 mmHg 43%
    05:00 +19°C° 0 mm 1 mps 634 mmHg 41%
    06:00 +21°C° 0 mm 1 mps 634 mmHg 38%
    07:00 +21°C° 0 mm 2 mps 635 mmHg 35%
    08:00 +24°C° 0 mm 2 mps 635 mmHg 31%
    09:00 +26°C° 0 mm 3 mps 635 mmHg 27%
    10:00 +27°C° 0 mm 3 mps 635 mmHg 27%
    11:00 +28°C° 0 mm 3 mps 635 mmHg 27%
    12:00 +29°C° 0 mm 4 mps 635 mmHg 26%
    13:00 +29°C° 0 mm 4 mps 635 mmHg 27%
    14:00 +29°C° 0 mm 4 mps 634 mmHg 28%
    15:00 +29°C° 0 mm 4 mps 634 mmHg 29%
    16:00 +28°C° 0 mm 3 mps 634 mmHg 34%
    17:00 +26°C° 0 mm 3 mps 633 mmHg 39%
    18:00 +25°C° 0 mm 2 mps 633 mmHg 44%
    19:00 +23°C° 0 mm 2 mps 633 mmHg 49%
    20:00 +20°C° 0 mm 2 mps 632 mmHg 55%
    21:00 +19°C° 0 mm 1 mps 632 mmHg 61%
    22:00 +19°C° 0 mm 1 mps 632 mmHg 59%
    23:00 +19°C° 0 mm 1 mps 632 mmHg 57%

    Day after tomorrow, 27 June, Wednesday

    Time Temperature Precipitation Wind Pressure Humidity
    00:00 +19°C° 0 mm 1 mps 632 mmHg 55%
    01:00 +18°C° 0 mm 1 mps 632 mmHg 55%
    02:00 +18°C° 0 mm 1 mps 632 mmHg 55%
    03:00 +18°C° 0 mm 1 mps 632 mmHg 55%
    04:00 +19°C° 0 mm 1 mps 632 mmHg 52%
    05:00 +20°C° 0 mm 1 mps 633 mmHg 49%
    06:00 +21°C° 0 mm 1 mps 633 mmHg 46%
    07:00 +23°C° 0 mm 1 mps 633 mmHg 41%
    08:00 +25°C° 0 mm 2 mps 634 mmHg 37%
    09:00 +27°C° 0 mm 2 mps 634 mmHg 33%
    10:00 +28°C° 0 mm 3 mps 634 mmHg 30%
    11:00 +29°C° 0 mm 3 mps 635 mmHg 28%
    12:00 +30°C° 0 mm 4 mps 635 mmHg 26%
    13:00 +30°C° 0 mm 4 mps 634 mmHg 26%
    14:00 +30°C° 0 mm 4 mps 634 mmHg 25%
    15:00 +30°C° 0 mm 4 mps 634 mmHg 25%
    16:00 +29°C° 0 mm 3 mps 634 mmHg 29%
    17:00 +27°C° 0 mm 3 mps 633 mmHg 32%
    18:00 +26°C° 0 mm 3 mps 633 mmHg 35%
    19:00 +24°C° 0 mm 2 mps 633 mmHg 40%
    20:00 +21°C° 0 mm 2 mps 632 mmHg 45%
    21:00 +19°C° 0 mm 2 mps 632 mmHg 50%
    22:00 +18°C° 0 mm 2 mps 632 mmHg 49%
    23:00 +18°C° 0 mm 2 mps 632 mmHg 47%

    28 June, Thursday

    Time Temperature Precipitation Wind Pressure Humidity
    00:00 +18°C° 0 mm 2 mps 632 mmHg 46%
    01:00 +19°C° 0 mm 1 mps 632 mmHg 45%
    02:00 +18°C° 0 mm 1 mps 632 mmHg 44%
    03:00 +18°C° 0 mm 1 mps 632 mmHg 43%
    04:00 +19°C° 0 mm 1 mps 632 mmHg 41%
    05:00 +21°C° 0 mm 1 mps 633 mmHg 38%
    06:00 +22°C° 0 mm 1 mps 633 mmHg 36%
    07:00 +24°C° 0 mm 1 mps 634 mmHg 31%
    08:00 +26°C° 0 mm 2 mps 634 mmHg 27%
    09:00 +28°C° 0 mm 2 mps 635 mmHg 22%
    10:00 +29°C° 0 mm 3 mps 635 mmHg 21%
    11:00 +29°C° 0 mm 3 mps 635 mmHg 20%
    12:00 +30°C° 0 mm 4 mps 635 mmHg 19%
    13:00 +30°C° 0 mm 4 mps 634 mmHg 19%
    14:00 +32°C° 0 mm 4 mps 634 mmHg 19%
    15:00 +32°C° 0 mm 4 mps 634 mmHg 19%
    16:00 +29°C° 0 mm 4 mps 633 mmHg 21%
    17:00 +28°C° 0 mm 3 mps 633 mmHg 24%
    18:00 +26°C° 0 mm 3 mps 633 mmHg 27%
    19:00 +24°C° 0 mm 3 mps 632 mmHg 30%
    20:00 +21°C° 0 mm 2 mps 632 mmHg 33%
    21:00 +19°C° 0 mm 2 mps 632 mmHg 36%
    22:00 +19°C° 0 mm 2 mps 632 mmHg 35%
    23:00 +19°C° 0 mm 2 mps 631 mmHg 35%

    29 June, Friday

    Time Temperature Precipitation Wind Pressure Humidity
    00:00 +18°C° 0 mm 2 mps 631 mmHg 34%
    01:00 +19°C° 0 mm 1 mps 631 mmHg 34%
    02:00 +19°C° 0 mm 1 mps 631 mmHg 35%
    03:00 +19°C° 0 mm 1 mps 631 mmHg 35%
    04:00 +20°C° 0 mm 1 mps 631 mmHg 34%
    05:00 +22°C° 0 mm 1 mps 632 mmHg 33%
    06:00 +24°C° 0 mm 1 mps 632 mmHg 32%
    07:00 +26°C° 0 mm 1 mps 633 mmHg 28%
    08:00 +27°C° 0 mm 2 mps 633 mmHg 23%
    09:00 +29°C° 0 mm 2 mps 633 mmHg 19%
    10:00 +30°C° 0 mm 2 mps 633 mmHg 19%
    11:00 +31°C° 0 mm 3 mps 633 mmHg 18%
    12:00 +33°C° 0 mm 3 mps 633 mmHg 18%
    13:00 +33°C° 0 mm 3 mps 633 mmHg 18%
    14:00 +33°C° 0 mm 3 mps 632 mmHg 19%
    15:00 +34°C° 0 mm 3 mps 632 mmHg 19%
    16:00 +31°C° 0 mm 3 mps 632 mmHg 23%
    17:00 +30°C° 0 mm 3 mps 631 mmHg 26%
    18:00 +28°C° 0 mm 3 mps 631 mmHg 30%
    19:00 +26°C° 0 mm 2 mps 630 mmHg 34%
    20:00 +24°C° 0 mm 2 mps 630 mmHg 39%
    21:00 +22°C° 0 mm 1 mps 630 mmHg 44%
    22:00 +22°C° 0 mm 1 mps 630 mmHg 43%
    23:00 +21°C° 0 mm 1 mps 630 mmHg 42%

    30 June, Saturday

    Time Temperature Precipitation Wind Pressure Humidity
    00:00 +21°C° 0 mm 1 mps 630 mmHg 42%
    01:00 +21°C° 0 mm 1 mps 630 mmHg 41%
    02:00 +20°C° 0 mm 1 mps 629 mmHg 41%
    03:00 +20°C° 0 mm 1 mps 629 mmHg 40%
    04:00 +21°C° 0 mm 1 mps 630 mmHg 39%
    05:00 +23°C° 0 mm 1 mps 631 mmHg 37%
    06:00 +22°C° 0 mm 0 mps 631 mmHg 36%
    07:00 +26°C° 0 mm 1 mps 632 mmHg 33%
    08:00 +28°C° 0 mm 1 mps 632 mmHg 29%
    09:00 +30°C° 0 mm 2 mps 633 mmHg 26%
    10:00 +31°C° 0 mm 2 mps 633 mmHg 24%
    11:00 +33°C° 0 mm 3 mps 633 mmHg 23%
    12:00 +34°C° 0 mm 3 mps 633 mmHg 21%
    13:00 +34°C° 0 mm 3 mps 632 mmHg 21%
    14:00 +34°C° 0 mm 3 mps 632 mmHg 20%
    15:00 +35°C° 0 mm 3 mps 632 mmHg 20%
    16:00 +33°C° 0 mm 3 mps 631 mmHg 24%
    17:00 +31°C° 0 mm 3 mps 631 mmHg 27%
    18:00 +29°C° 0 mm 2 mps 631 mmHg 30%
    19:00 +27°C° 0 mm 2 mps 630 mmHg 36%
    20:00 +25°C° 0 mm 1 mps 630 mmHg 41%
    21:00 +23°C° 0 mm 1 mps 630 mmHg 46%
    22:00 +22°C° 0 mm 1 mps 630 mmHg 45%
    23:00 +22°C° 0 mm 1 mps 629 mmHg 44%
    Show more